Regional Weather Roundup
Issued by NWS

Home | Current Version | Previous Version | Text Only | Print | Product List | Glossary Off
Versions: 1 2 3 4 5 6 7 8 9 10 11 12 13 14 15 16 17 18 19 20 21 22 23 24 25 26 27 28 29 30 31 32 33 34 35 36 37 38 39 40 41 42 43 44 45 46 47 48 49 50

000
ASUS43 KMPX 280101
RWRMN
WEATHER ROUNDUP FOR MINNESOTA
NATIONAL WEATHER SERVICE TWIN CITIES/CHANHASSEN MN
800 PM CDT THU JUL 27 2017


NOTE: "FAIR" INDICATES FEW OR NO CLOUDS BELOW 12,000 FEET WITH NO
SIGNIFICANT WEATHER AND/OR OBSTRUCTIONS TO VISIBILITY. N/A MEANS
CURRENT SKY AND/OR WEATHER CONDITIONS ARE NOT AVAILABLE.

MNZ060>063-068>070-280200-
   Twin Cities Metro

CITY           SKY/WX    TMP DP  RH WIND       PRES   REMARKS
TWIN CITIES    PTCLDY    82  57  42 NE8       30.02S
ST PAUL        CLEAR     81  59  47 NE6       30.02R
CRYSTAL        CLEAR     81  55  40 N9        30.01S
BLAINE         PTCLDY    81  61  50 N7        30.03R
LAKEVILLE      CLEAR     72  68  88 CALM      30.02S
EDEN PRAIRIE   PTCLDY    81  59  47 N6        30.01S
SOUTH ST PAUL  CLEAR     81  55  41 NE5       30.01S
LAKE ELMO      FAIR      79  59  50 N5        30.03S
$$
MNZ001>005-007-008-013>017-022>024-027-028-280200-
   Northwest Minnesota

CITY           SKY/WX    TMP DP  RH WIND       PRES   REMARKS
BEMIDJI        CLEAR     73  55  53 NE3       30.09S
HALLOCK        SUNNY     81  63  54 W3        30.04F
ROSEAU         CLEAR     77  68  73 S3        30.06S
WARROAD        CLEAR     75  68  78 CALM      30.07S
CROOKSTON      PTCLDY    79  64  61 CALM      30.06F
FOSSTON        CLEAR     75  66  73 CALM      30.08S
DETROIT LAKES  CLEAR     77  61  57 CALM      30.09R
MOORHEAD       CLEAR     79  61  53 CALM      30.06S
PARK RAPIDS    CLEAR     79  58  48 N10       30.07S
MAHNOMEN       FAIR      75  63  66 E3        30.07S
$$
MNZ006-009>011-018-025>026-280200-
   North Central Minnesota

CITY           SKY/WX    TMP DP  RH WIND       PRES   REMARKS
BAUDETTE       CLEAR     76  62  62 NW5       30.06S
FLAG ISLAND    CLEAR     79  64  61 CALM      30.05S
INTL FALLS     CLEAR     74  61  63 W6        30.06S
WASKISH        CLOUDY    73  64  73 SW3       30.07S
BIG FORK       CLEAR     72  63  73 CALM      30.07F
LONGVILLE      CLEAR     75  63  64 CALM      30.07S
GRAND RAPIDS   CLEAR     72  65  78 CALM      30.08S
CRANE LAKE     CLEAR     72  64  78 CALM      30.08S
ORR            PTCLDY    72  59  64 CALM      30.05S
COOK             N/A     73  61  64 CALM      30.08S
WALKER         FAIR      74  60  62 N6        30.08S
$$
MNZ012-019>021-037-280200-
   Northeast Minnesota

CITY           SKY/WX    TMP DP  RH WIND       PRES   REMARKS
DULUTH         PTCLDY    66  56  70 NE12      30.09R
ELY            PTCLDY    68  57  68 S3        30.09S
HIBBING        CLEAR     75  57  53 N5        30.07R
EVELETH        CLEAR     73  50  44 E8G20     30.10R
DULUTH HARBOR  PTCLDY    66  63  88 NE8       30.08R
GRAND MARAIS     N/A     63  54  72 CALM      30.06F
G MARAIS ARPRT CLOUDY    63  52  67 CALM      30.12S
$$
MNZ029>031-032-039>041-046>048-054>057-064-280200-
   West Central Minnesota

CITY           SKY/WX    TMP DP  RH WIND       PRES   REMARKS
FERGUS FALLS   CLEAR     79  64  61 CALM      30.05S
WHEATON        CLEAR     77  59  53 CALM      30.07S
MORRIS         CLEAR     79  63  57 N3        30.06S
ALEXANDRIA     CLEAR     76  63  64 NW5       30.08F
ELBOW LAKE     FAIR      77  62  59 CALM      30.07S
WADENA         CLEAR     75  63  64 CALM      30.07S
GLENWOOD       CLEAR     79  57  47 CALM      30.07F
APPLETON       CLEAR     79  63  57 NE3       30.05S
BENSON         CLEAR     79  61  53 CALM      30.07S
ORTONVILLE     CLEAR     79  63  57 NE6         N/A
MADISON        CLEAR     81  64  57 CALM      30.06S
WILLMAR        FAIR      77  64  65 CALM      30.06S
$$
MNZ033>034-036-042>043-049>051-058-059-280200-
   Central Minnesota

CITY           SKY/WX    TMP DP  RH WIND       PRES   REMARKS
ST CLOUD       CLEAR     79  62  56 N3        30.04S
SAUK CENTRE    FAIR      78  59  51 N3        30.06S
PAYNESVILLE    CLEAR     79  59  49 N3        30.06S
AITKIN         CLEAR     72  64  78 CALM      30.05S
PINE RIVER     CLEAR     77  61  57 CALM      30.10S
BRAINERD       CLEAR     78  61  55 N3        30.06R
STAPLES        CLEAR     77  57  50 CALM      30.06F
LONG PRAIRIE   FAIR      77  61  57 CALM      30.07R
LITTLE FALLS   CLEAR     77  59  53 CALM      30.06S
LITCHFIELD     CLEAR     81  63  54 NE3       30.05S
BUFFALO        CLEAR     80  60  50 NE3       30.04S
MAPLE LAKE     CLEAR     79  63  56 CALM      30.05S
HUTCHINSON     CLEAR     79  62  54 N3        30.05S
$$
MNZ037-044-045-052-053-280200-
   East Central Minnesota

CITY           SKY/WX    TMP DP  RH WIND       PRES   REMARKS
PRINCETON      CLEAR     79  63  57 VRB5      30.04S
MORA           CLEAR     73  61  64 CALM      30.06S
CAMBRIDGE      CLEAR     81  63  54 N3        30.02S
RUSH CITY      MOCLDY    74  62  67 CALM      30.04S
MOOSE LAKE     CLEAR     75  63  64 CALM      30.04R
HINCKLEY       CLOUDY    77  64  65 CALM      30.05R
CLOQUET        CLEAR     70  57  64 SE6       30.07R
MCGREGOR       CLEAR     77  61  57 CALM      30.06S
$$
MNZ071>073-080-081-089-090-097-098-280200-
   Southwest Minnesota

CITY           SKY/WX    TMP DP  RH WIND       PRES   REMARKS
MONTEVIDEO     CLEAR     79  63  57 CALM      30.05F
CANBY          CLEAR     80  61  51 CALM      30.07S
MARSHALL       CLEAR     77  62  59 NE3       30.06S
REDWOOD FALLS  CLEAR     79  60  52 CALM      30.04S
OLIVIA         CLEAR     77  63  61 CALM      30.04S
PIPESTONE      CLEAR     77  63  61 CALM      30.07F
WINDOM         CLEAR     75  63  64 N5        30.05F
WORTHINGTON    CLEAR     76  62  62 NE5       30.07F
JACKSON        CLEAR     73  63  68 CALM      30.07S
TRACY          CLEAR     77  65  65 CALM      30.06F
SLAYTON        RAIN      76  56  50 NE3       30.08F
$$
MNZ065>067-074>077-082>085-091>093-280200-
   South Central Minnesota

CITY           SKY/WX    TMP DP  RH WIND       PRES   REMARKS
MANKATO        CLEAR     78  63  59 N6        30.04S
NEW ULM        CLEAR     79  61  53 CALM      30.04R
ST JAMES       CLEAR     75  64  69 CALM      30.05S
FAIRMONT       CLEAR     76  64  66 N6        30.04S
GLENCOE        CLEAR     80  65  61 CALM      30.03S
FARIBAULT      CLEAR     75  66  73 CALM      30.03S
OWATONNA       CLEAR     77  64  65 NE3       30.03S
WASECA         CLEAR     73  64  73 N3        30.05S
ALBERT LEA     CLEAR     77  64  65 NE3       30.03S
$$
MNZ078>079-086>088-094>096-280200-
   Southeast Minnesota

CITY           SKY/WX    TMP DP  RH WIND       PRES   REMARKS
ROCHESTER      CLEAR     75  62  64 N7        30.03S
RED WING       CLEAR     77  64  65 CALM      30.00S
STANTON        CLEAR     78  67  69 CALM      30.01S
DODGE CENTER   CLEAR     73  63  68 CALM      30.03S
WINONA         CLEAR     79  63  57 CALM      30.00S
AUSTIN         CLEAR     77  63  61 CALM      30.02S
PRESTON        CLEAR     74  63  69 N3        30.03S
$$
ABBREVIATIONS USED IN REMARKS
   TC - TEMPERATURES IN CELSIUS
  WCI - WIND CHILL INDEX
   HX - HEAT INDEX
  VSB - VISIBILITY
$$




USA.gov is the U.S. government's official web portal to all federal, state and local government web resources and services.